Theta_e
347 351 360 360 358 358 360 362 363 364 363 362 361 361 361 360 358 355 354 352 351 349 345 342 341 339 337 336 334 335 336 335 336 339 344 347 349 352 353 352 352 352 354
349 351 359 358 358 357 359 361 362 363 363 362 362 362 361 360 358 356 353 350 348 344 341 339 337 336 335 334 334 333 333 332 330 330 332 339 346 349 349 353 352 353 354
347 350 354 358 358 356 357 360 361 362 362 362 362 361 360 359 356 354 352 349 345 341 339 337 335 335 335 335 334 334 334 333 333 335 334 325 341 349 348 348 352 353 354
350 348 350 358 357 357 356 358 360 360 361 362 361 360 358 357 356 353 350 346 343 340 338 336 336 336 336 336 336 335 336 336 338 339 333 329 331 348 348 347 347 350 352
353 345 352 358 357 357 355 356 358 359 359 360 360 359 358 356 354 351 349 347 342 340 338 338 338 338 337 338 339 339 339 340 341 340 335 334 332 343 346 345 349 348 351
348 346 356 357 357 357 356 354 355 357 358 358 358 358 356 354 353 350 349 347 346 342 341 340 342 340 341 342 342 342 342 344 344 339 342 337 335 343 341 344 345 345 347
346 348 354 357 357 357 356 355 354 354 355 356 356 356 354 353 351 350 348 347 346 346 344 343 344 345 345 344 344 344 345 346 343 340 341 341 335 341 339 341 342 346 348
343 351 354 356 356 356 356 355 353 353 353 353 354 354 353 351 351 349 348 347 347 347 347 347 346 347 347 347 347 348 347 347 344 340 341 343 341 344 340 340 342 347 351
345 355 354 352 354 356 355 354 354 352 352 352 352 352 351 351 350 349 347 347 347 347 347 347 347 348 348 348 348 347 346 344 340 336 337 342 346 346 341 340 342 347 350
343 354 355 354 349 349 351 354 353 352 352 352 351 351 350 350 349 349 347 347 347 348 348 348 348 348 349 348 347 347 344 344 339 335 334 341 347 344 342 341 342 344 346
339 349 355 354 351 346 345 349 353 353 352 352 351 351 348 344 343 342 345 344 348 348 349 349 349 349 349 349 349 347 345 338 336 336 337 348 348 345 343 342 342 343 345
336 340 345 353 351 346 342 346 350 349 348 348 346 345 346 342 340 340 342 345 347 348 349 349 349 350 348 343 344 347 342 337 336 338 341 349 347 343 342 342 342 343 344
336 338 344 356 354 349 346 347 349 346 346 345 345 343 345 341 339 339 337 339 341 346 342 345 345 345 342 341 340 342 340 339 337 335 342 347 345 341 339 340 342 343 345
335 339 346 356 359 357 352 348 352 350 348 345 345 343 341 341 339 336 336 339 336 338 339 338 339 341 341 342 342 343 341 339 336 337 342 346 343 341 340 340 341 343 346
330 335 342 356 359 363 364 359 352 350 351 348 347 346 343 342 340 339 340 338 338 337 339 336 339 339 340 342 343 342 339 340 340 338 340 346 345 344 343 343 342 341 343
352 348 349 355 363 362 361 361 364 359 353 352 350 350 347 343 344 341 340 342 341 339 339 338 337 339 341 342 343 343 342 342 341 340 339 342 345 345 344 344 344 344 344
343 356 349 354 364 362 361 361 361 360 358 353 353 358 351 348 344 345 343 338 341 344 340 341 339 340 343 344 343 344 341 342 340 340 341 338 340 345 345 346 345 344 343
343 345 348 339 356 362 361 360 359 356 354 353 354 354 358 351 350 349 344 344 342 343 342 341 341 340 339 340 341 340 344 343 341 340 341 337 337 337 341 345 345 344 343
343 346 349 350 346 358 361 358 357 353 351 352 352 353 358 355 351 350 347 345 348 343 340 341 340 338 338 339 337 340 342 339 339 340 339 338 338 338 337 342 342 344 343
343 347 345 346 350 356 355 356 350 349 348 349 350 353 356 355 354 350 350 347 351 342 342 340 338 340 338 338 335 338 339 339 340 339 338 337 338 338 339 337 338 338 342
343 345 347 348 351 353 352 344 342 341 342 345 349 355 357 355 353 352 347 350 347 344 341 344 342 340 336 336 337 336 334 337 336 336 338 337 336 337 337 337 336 335 337
344 344 347 346 350 352 346 344 342 342 341 343 350 355 357 355 353 352 348 347 346 345 345 345 341 336 335 337 333 331 324 328 333 334 335 336 334 335 335 335 334 336 335
340 341 344 345 344 346 344 345 348 346 348 349 353 355 354 354 353 351 348 347 347 346 342 343 340 337 332 338 337 330 322 318 324 331 331 334 334 334 334 331 336 335 335
337 340 343 345 344 345 349 345 344 339 338 343 352 353 352 353 351 350 348 348 347 344 344 340 341 338 339 332 335 335 333 329 320 319 328 330 333 332 331 332 329 332 335
327 330 334 340 345 344 345 345 342 345 345 355 354 352 352 351 347 347 347 348 345 344 345 341 339 341 340 335 333 331 330 329 328 322 318 323 329 330 331 330 326 329 334
326 327 332 335 337 344 347 348 347 346 344 347 346 347 345 344 343 344 345 346 345 345 346 344 344 341 339 337 335 332 327 324 323 323 321 321 321 326 329 329 330 331 333
Wind_Speed
15 20 22 20 17 15 14 11 12 10 10 11 12 11 12 11 11 11 10 10 8 8 8 8 7 7 7 7 6 6 6 5 5 5 4 3 5 6 5 3 1 5 9
20 20 21 20 18 16 15 13 11 11 11 12 12 11 11 11 11 11 10 8 8 7 7 6 5 5 5 5 5 5 4 3 3 3 4 3 3 6 6 5 4 9 9
19 19 20 20 18 16 14 13 12 11 11 11 11 11 11 12 11 10 9 8 8 6 6 6 5 5 4 4 4 3 3 2 1 4 7 5 6 7 8 6 4 8 9
19 18 17 21 19 18 17 14 12 12 11 11 11 11 11 11 11 11 10 9 9 8 7 6 5 4 4 4 3 2 1 1 4 7 5 8 8 9 9 6 3 3 7
17 17 17 21 20 18 17 15 15 13 12 11 12 12 12 11 10 10 10 10 10 9 8 8 6 5 4 3 2 2 2 4 6 10 8 1 6 8 7 6 1 1 6
17 17 21 21 20 18 18 17 15 14 14 13 13 12 12 13 12 11 10 10 10 10 9 8 7 7 6 4 3 3 3 7 8 8 8 5 8 10 7 6 5 4 0
17 16 20 21 18 18 18 17 16 15 14 14 14 13 13 13 13 13 13 12 10 10 10 9 8 8 7 6 5 4 5 7 8 9 9 6 9 12 9 6 2 4 3
17 16 16 21 18 16 16 17 17 16 16 16 15 15 14 14 14 14 13 13 12 11 11 10 10 9 8 7 6 6 6 7 9 8 9 4 14 13 11 8 2 5 5
17 16 14 13 16 16 15 15 17 17 17 16 15 15 14 14 14 14 14 13 12 13 12 11 12 10 9 7 7 6 7 8 6 7 11 4 12 11 10 8 4 3 2
18 17 15 13 14 13 11 14 14 15 15 15 15 15 15 14 14 14 13 13 14 14 13 13 12 10 9 7 6 7 9 10 7 8 8 5 13 12 10 7 5 1 1
16 19 16 15 14 13 12 12 12 14 14 14 13 15 13 9 10 13 14 15 16 15 14 14 12 11 9 9 11 12 12 6 8 8 2 15 12 10 8 7 6 4 2
17 19 16 16 16 15 11 11 13 11 9 9 10 11 9 10 8 12 14 18 18 17 15 14 13 12 11 7 7 13 6 9 9 7 5 16 13 11 8 7 6 6 5
15 15 19 13 16 15 11 9 7 7 8 9 13 11 10 8 8 9 7 9 8 14 8 10 9 7 10 8 9 8 10 11 7 3 11 15 13 11 9 7 8 7 7
15 15 15 11 12 11 8 9 10 9 9 9 11 13 9 8 8 8 7 9 9 8 10 8 7 9 10 10 12 9 12 8 2 2 8 13 12 11 11 9 10 10 9
16 15 16 21 12 8 6 4 7 8 9 11 11 14 12 11 10 9 7 8 10 10 10 9 8 10 11 11 12 12 5 4 5 1 4 13 12 11 11 11 11 12 12
3 5 2 14 13 11 8 7 4 5 7 9 10 11 17 12 9 10 9 7 7 10 9 11 10 10 11 11 12 7 6 6 6 5 2 7 13 13 12 13 12 13 13
4 2 4 1 12 11 11 9 6 4 5 5 6 10 18 14 12 11 9 10 8 5 12 9 11 9 5 6 5 5 5 5 4 4 2 5 7 13 14 14 13 14 13
6 7 6 5 2 11 10 8 7 8 7 6 5 5 13 16 13 10 9 8 9 7 5 6 6 6 6 4 3 4 4 3 4 3 4 4 7 6 11 15 14 14 13
8 7 7 7 5 7 6 8 7 7 5 5 5 5 7 15 15 10 8 7 8 7 7 4 4 5 3 4 3 4 4 2 4 5 7 6 6 7 6 12 15 15 14
10 10 9 7 6 4 4 6 4 4 5 5 5 5 7 9 14 11 7 8 5 8 5 4 5 3 4 4 6 4 4 4 5 7 6 6 3 4 5 4 6 7 13
9 9 9 8 7 4 3 4 4 5 5 6 6 7 7 8 10 11 9 7 8 7 7 6 5 5 3 3 3 1 3 6 8 7 4 3 3 5 5 6 4 3 5
10 10 9 9 8 7 6 5 4 5 7 7 6 7 7 8 9 9 9 8 10 6 6 5 5 3 3 4 4 1 3 3 7 5 3 3 5 4 6 5 6 3 5
9 9 9 10 10 10 11 6 5 6 4 3 4 5 6 8 8 9 10 9 9 6 6 4 5 6 5 4 5 3 3 1 2 2 5 4 3 1 3 3 2 2 7
6 7 9 11 12 11 11 9 9 8 7 5 4 6 6 6 7 9 10 8 6 7 5 7 5 5 5 3 3 3 4 1 1 1 1 2 3 3 4 4 2 3 8
13 12 11 10 12 14 14 13 9 8 6 3 4 6 6 5 6 6 8 7 6 6 6 9 8 8 5 4 4 3 3 4 4 3 2 2 1 2 2 3 3 3 6
17 16 12 14 15 14 12 13 10 8 8 6 7 7 6 5 4 6 9 8 6 8 7 8 6 7 4 4 3 4 3 3 3 2 3 4 3 2 2 2 5 8 6
Wind_Direction
135 143 149 147 150 148 148 153 146 150 146 144 141 139 135 130 126 122 122 123 121 125 124 125 124 124 121 104 91 70 53 42 37 27 31 49 70 78 62 66 68 164 132
135 143 149 149 155 153 150 152 151 151 153 148 144 144 141 138 136 136 138 139 138 143 137 130 129 125 113 111 108 105 94 71 20 331 297 257 139 104 76 52 56 111 139
133 142 151 153 156 154 152 152 155 153 150 147 149 152 149 147 146 147 150 154 154 154 147 148 148 144 135 129 126 126 119 113 277 277 275 266 176 144 98 56 57 134 147
137 143 151 156 159 160 156 153 155 154 148 151 156 156 157 156 156 157 162 167 167 168 167 164 170 166 163 151 149 142 159 260 275 276 266 241 201 143 113 86 54 135 159
132 143 150 158 159 162 160 157 157 157 157 160 167 171 169 166 165 168 172 177 178 180 179 177 182 180 189 182 198 195 258 280 288 292 262 50 49 107 94 76 3 198 185
138 148 148 159 158 166 165 164 162 162 163 171 178 178 180 174 172 174 182 185 183 187 190 186 184 191 203 205 214 245 265 286 300 276 267 134 98 126 113 81 32 11 292
144 151 153 156 162 167 169 167 168 167 169 176 180 182 187 179 178 178 186 187 187 193 194 197 196 202 209 217 226 247 269 284 293 300 300 157 120 137 137 109 48 332 262
142 133 150 157 164 169 170 171 173 176 178 182 185 188 187 186 184 185 192 189 189 198 198 202 206 209 215 224 235 262 274 277 289 289 290 158 151 149 134 129 86 309 242
138 128 144 160 164 170 174 179 179 182 183 185 187 192 192 191 192 191 194 196 197 201 202 204 211 213 219 228 248 257 266 275 283 288 292 99 132 132 129 140 125 334 249
143 135 143 158 175 176 180 189 190 191 189 190 191 193 195 198 197 197 198 203 203 205 204 207 213 214 221 238 240 254 257 259 256 262 268 141 144 141 144 150 133 77 193
156 148 150 163 168 178 184 187 195 201 199 196 202 202 196 198 203 208 206 208 210 207 206 210 214 215 219 226 234 233 240 244 239 228 225 138 144 148 157 162 166 174 217
162 160 160 160 163 175 185 181 187 197 204 207 206 202 206 207 207 205 207 211 206 206 208 212 214 214 219 231 221 229 229 236 244 241 133 149 155 159 171 182 195 199 211
183 172 161 152 161 170 188 166 176 192 195 205 209 205 200 210 215 210 208 197 199 206 205 209 210 217 218 219 240 192 214 231 237 254 148 161 160 161 168 194 211 217 219
196 182 129 136 158 173 170 168 175 188 190 200 203 201 201 199 210 219 206 194 192 192 204 210 204 204 222 226 244 195 211 216 317 324 158 157 160 167 174 195 218 222 222
3 22 160 190 164 156 178 197 184 192 187 197 196 199 197 203 207 206 216 209 183 196 190 206 205 204 213 220 235 241 235 239 214 243 143 170 177 178 186 195 212 223 224
173 195 159 141 150 156 177 214 199 197 203 195 194 195 200 199 194 209 204 206 214 191 201 198 209 210 205 211 227 228 208 206 204 201 181 168 184 187 194 201 209 220 226
229 251 311 11 155 163 178 192 219 235 202 233 215 193 189 194 204 197 209 210 202 211 195 191 209 214 204 206 226 210 208 203 204 189 176 177 191 199 202 201 211 221 223
194 190 200 250 159 172 176 186 203 214 224 228 216 211 177 190 193 205 203 205 214 205 227 202 188 190 200 207 203 220 189 183 225 235 212 199 190 198 213 215 201 215 217
198 196 187 181 216 180 180 194 203 215 230 235 215 216 187 181 195 190 210 209 186 211 214 204 202 181 196 175 213 238 143 187 256 273 235 221 187 193 192 206 212 206 210
179 165 174 183 193 208 186 205 211 210 223 225 228 227 190 184 180 194 204 206 201 203 207 212 185 205 177 176 219 221 164 198 209 227 243 228 249 216 195 189 200 213 210
160 164 167 173 186 186 218 213 227 224 222 228 203 209 192 173 177 177 201 212 208 207 203 199 171 176 182 208 240 225 223 213 222 223 243 180 211 248 251 190 198 196 201
164 171 181 187 185 188 211 229 234 215 225 218 192 184 175 162 172 178 190 224 200 208 193 207 162 153 188 229 205 150 262 235 231 231 258 205 223 228 253 261 207 232 194
187 188 184 186 197 205 215 232 220 230 251 272 170 160 156 155 168 176 192 220 188 198 195 175 169 178 201 198 170 203 255 182 103 219 232 216 239 239 262 195 209 111 258
224 198 190 193 201 208 203 216 215 215 213 204 198 145 147 162 181 178 183 216 170 185 206 181 167 197 212 179 152 212 255 344 215 237 219 210 217 207 243 109 182 273 199
238 229 216 207 201 203 202 211 209 213 205 174 130 139 145 125 122 148 177 213 173 190 212 169 187 199 167 190 178 192 188 204 182 228 270 233 130 214 161 157 106 275 203
232 223 213 207 211 197 195 190 198 216 207 174 158 134 135 130 131 187 189 206 185 208 182 170 173 172 169 162 202 273 175 180 170 163 231 263 222 139 102 195 172 225 160